User: anonymous   Login
Location: Unspecified
(0.0000°N, 0.0000°E)
Time: 06:57:45
(UTC+00:00)
Language:

FORMOSAT 3F - Orbit

View from above orbital plane
View from above orbital plane
View from above satellite
View from above satellite

Ground track
Ground track

The orbit data is extracted from the following two-line orbital elements,

1 29052U 06011F   17202.90689031 +.00000082 +00000-0 +48405-4 0  9999
2 29052 072.0338 169.1787 0039009 044.9625 315.4659 14.28694562588071
Epoch (UTC): 21 July 2017 21:45:55
Eccentricity: 0.0039009
inclination: 72.0338°
perigee height: 768 km
apogee height: 824 km
right ascension of ascending node: 169.1787°
argument of perigee: 44.9625°
revolutions per day: 14.28694562
mean anomaly at epoch: 315.4659°
orbit number at epoch: 58807

The dashed part of the orbit path shows where the satellite is in the earth's shadow,  

DLR